RJA017 EDHI-OJAI

Flight info

Callsign RJA017
Flight time N/A
Altitude 36000
Route WSN5E WSN DCT BASUM DCT MEVEL DCT ERKUM DCT KENUM DCT DIK/N0443F370 DCT LUPEN DCT NATOR DCT ZUE DCT RESIA DCT LAREN DCT TORPO DCT AZHIF DCT TIGRA UL995 KRK UL53 KOR UN604 ATV UL607 KEA UL52 VAXOS UN134 VANZA N134 RALNA
Aircraft A21N/M-SDE2E3FGHIRWXY/LB1

Departure

Time 2026-04-30 08:41
Airport Hamburg-Finkenwerder Airport (EDHI)

Arrival

Time N/A
Airport Queen Alia International Airport (OJAI)
Time Latitude Longitude Altitude Speed Heading
2026-04-30 08:23 53.54372 9.82321 28 ft 0 kts 12°
2026-04-30 08:31 53.54366 9.82319 28 ft 4 kts 15°
2026-04-30 08:32 53.54342 9.82302 28 ft 4 kts 32°
2026-04-30 08:32 53.54321 9.82274 28 ft 4 kts 46°
2026-04-30 08:32 53.54303 9.82240 27 ft 5 kts 45°
2026-04-30 08:32 53.54284 9.82218 27 ft 3 kts 13°
2026-04-30 08:33 53.54261 9.82217 27 ft 4 kts 330°
2026-04-30 08:33 53.54248 9.82247 27 ft 5 kts 279°
2026-04-30 08:33 53.54246 9.82292 27 ft 5 kts 269°
2026-04-30 08:33 53.54246 9.82334 27 ft 3 kts 275°
2026-04-30 08:34 53.54246 9.82336 27 ft 2 kts 275°
2026-04-30 08:35 53.54247 9.82320 27 ft 10 kts 281°
2026-04-30 08:35 53.54266 9.82178 27 ft 15 kts 284°
2026-04-30 08:36 53.54288 9.81995 27 ft 17 kts 239°
2026-04-30 08:36 53.54159 9.81918 27 ft 30 kts 194°
2026-04-30 08:36 53.53960 9.81827 26 ft 29 kts 196°
2026-04-30 08:36 53.53800 9.81874 26 ft 27 kts 106°
2026-04-30 08:37 53.53748 9.82186 26 ft 29 kts 105°
2026-04-30 08:37 53.53694 9.82517 27 ft 30 kts 107°
2026-04-30 08:37 53.53561 9.82790 27 ft 32 kts 142°
2026-04-30 08:37 53.53391 9.83010 27 ft 28 kts 143°
2026-04-30 08:38 53.53271 9.83068 26 ft 19 kts 80°
2026-04-30 08:38 53.53382 9.83239 27 ft 29 kts 52°
2026-04-30 08:38 53.53513 9.83519 28 ft 35 kts 50°
2026-04-30 08:38 53.53684 9.83876 26 ft 40 kts 50°
2026-04-30 08:39 53.53851 9.84232 29 ft 39 kts 52°
2026-04-30 08:39 53.54024 9.84597 28 ft 40 kts 51°
2026-04-30 08:39 53.54194 9.84960 29 ft 32 kts 50°
2026-04-30 08:39 53.54275 9.85095 32 ft 13 kts 300°
2026-04-30 08:40 53.54250 9.84985 30 ft 8 kts 210°
2026-04-30 08:40 53.54209 9.84976 30 ft 7 kts 209°
2026-04-30 08:40 53.54149 9.84856 29 ft 27 kts 231°
2026-04-30 08:40 53.53850 9.84221 29 ft 110 kts 232°
2026-04-30 08:41 53.53232 9.82926 93 ft 163 kts 230°
2026-04-30 08:41 53.52510 9.81464 846 ft 162 kts 229°
2026-04-30 08:41 53.51802 9.79976 1624 ft 162 kts 230°
2026-04-30 08:41 53.51110 9.78465 2398 ft 168 kts 230°
2026-04-30 08:42 53.50352 9.76817 2923 ft 188 kts 230°
2026-04-30 08:42 53.49524 9.75020 3527 ft 205 kts 230°
2026-04-30 08:42 53.48739 9.72901 4172 ft 224 kts 246°
2026-04-30 08:42 53.48285 9.70278 4759 ft 247 kts 254°
2026-04-30 08:43 53.47824 9.67343 5341 ft 270 kts 254°
2026-04-30 08:43 53.47330 9.64225 6138 ft 284 kts 255°
2026-04-30 08:43 53.46786 9.60873 6619 ft 311 kts 255°
2026-04-30 08:43 53.46191 9.57209 7032 ft 338 kts 255°
2026-04-30 08:44 53.45554 9.53289 7523 ft 356 kts 255°
2026-04-30 08:44 53.44895 9.49228 8296 ft 364 kts 255°
2026-04-30 08:44 53.44230 9.45142 9179 ft 370 kts 255°
2026-04-30 08:44 53.43550 9.40942 10064 ft 376 kts 255°
2026-04-30 08:45 53.42860 9.36671 10863 ft 383 kts 255°
2026-04-30 08:45 53.42152 9.32333 11643 ft 389 kts 255°
2026-04-30 08:45 53.41432 9.27930 12417 ft 395 kts 255°
2026-04-30 08:45 53.40700 9.23454 13214 ft 401 kts 255°
2026-04-30 08:46 53.39952 9.18909 13998 ft 407 kts 256°
2026-04-30 08:46 53.39190 9.14291 14735 ft 414 kts 255°
2026-04-30 08:46 53.38414 9.09619 15465 ft 418 kts 255°
2026-04-30 08:46 53.37630 9.04906 16175 ft 423 kts 255°
2026-04-30 08:47 53.36820 9.00133 16894 ft 428 kts 253°
2026-04-30 08:47 53.35656 8.95579 17586 ft 434 kts 239°
2026-04-30 08:47 53.33811 8.91571 18261 ft 437 kts 223°
2026-04-30 08:47 53.31385 8.88508 18914 ft 438 kts 206°
2026-04-30 08:48 53.28573 8.86632 19514 ft 435 kts 190°
2026-04-30 08:48 53.25594 8.85904 20149 ft 433 kts 180°
2026-04-30 08:48 53.22577 8.85526 20761 ft 436 kts 180°
2026-04-30 08:48 53.19533 8.85147 21373 ft 440 kts 180°
2026-04-30 08:49 53.16461 8.84724 21974 ft 444 kts 181°
2026-04-30 08:49 53.13373 8.84270 22564 ft 447 kts 181°
2026-04-30 08:49 53.10258 8.83801 23141 ft 451 kts 182°
2026-04-30 08:49 53.07162 8.83335 23711 ft 454 kts 182°
2026-04-30 08:50 53.04002 8.82862 24249 ft 458 kts 182°
2026-04-30 08:50 53.00817 8.82387 24719 ft 461 kts 182°
2026-04-30 08:50 52.97607 8.81907 25190 ft 464 kts 182°
2026-04-30 08:50 52.94375 8.81423 25648 ft 467 kts 182°
2026-04-30 08:51 52.91126 8.80935 26115 ft 470 kts 182°
2026-04-30 08:51 52.87848 8.80446 26560 ft 474 kts 182°
2026-04-30 08:51 52.84557 8.79954 27005 ft 477 kts 182°
2026-04-30 08:51 52.81257 8.79178 27428 ft 483 kts 190°
2026-04-30 08:52 52.79108 8.78146 27701 ft 487 kts 198°
2026-04-30 08:52 52.75095 8.74616 28247 ft 493 kts 216°
2026-04-30 08:52 52.72573 8.70876 28762 ft 493 kts 226°
2026-04-30 08:52 52.70996 8.68070 29139 ft 492 kts 228°
2026-04-30 08:53 52.68697 8.63910 29695 ft 491 kts 228°
2026-04-30 08:53 52.66420 8.59818 30202 ft 490 kts 227°
2026-04-30 08:53 52.64102 8.55706 30681 ft 489 kts 227°
2026-04-30 08:53 52.61778 8.51603 31103 ft 488 kts 227°
2026-04-30 08:54 52.59468 8.47542 31606 ft 485 kts 226°
2026-04-30 08:54 52.57160 8.43501 32053 ft 483 kts 226°
2026-04-30 08:54 52.54863 8.39481 32470 ft 482 kts 226°
2026-04-30 08:54 52.52574 8.35474 32869 ft 481 kts 226°
2026-04-30 08:55 52.50282 8.31472 33244 ft 480 kts 226°
2026-04-30 08:55 52.47989 8.27483 33636 ft 479 kts 226°
2026-04-30 08:55 52.45707 8.23511 33984 ft 479 kts 226°
2026-04-30 08:55 52.43423 8.19538 34301 ft 479 kts 226°
2026-04-30 08:56 52.41140 8.15575 34621 ft 478 kts 226°
2026-04-30 08:56 52.38856 8.11622 34920 ft 477 kts 226°
2026-04-30 08:56 52.36576 8.07681 35220 ft 476 kts 226°
2026-04-30 08:56 52.34300 8.03753 35488 ft 476 kts 226°
2026-04-30 08:57 52.32020 7.99830 35563 ft 475 kts 226°
2026-04-30 08:57 52.27475 7.92016 35524 ft 473 kts 226°
2026-04-30 08:58 52.22966 7.84310 35529 ft 472 kts 226°
2026-04-30 08:58 52.18435 7.76580 35526 ft 472 kts 226°
2026-04-30 08:59 52.13896 7.68846 35526 ft 472 kts 226°
2026-04-30 08:59 52.09350 7.61131 35525 ft 471 kts 226°
2026-04-30 09:00 52.04806 7.53448 35520 ft 471 kts 226°
2026-04-30 09:00 52.00242 7.45750 35515 ft 473 kts 225°
2026-04-30 09:01 51.95701 7.38106 35504 ft 474 kts 225°
2026-04-30 09:01 51.91128 7.30437 35499 ft 472 kts 225°
2026-04-30 09:02 51.84443 7.18756 35500 ft 472 kts 233°
2026-04-30 09:02 51.80551 7.10181 35499 ft 473 kts 233°
2026-04-30 09:03 51.76659 7.01598 35486 ft 474 kts 233°
2026-04-30 09:03 51.72746 6.93020 35487 ft 474 kts 233°
2026-04-30 09:04 51.68817 6.84464 35479 ft 474 kts 233°
2026-04-30 09:04 51.64902 6.75996 35465 ft 473 kts 231°
2026-04-30 09:05 51.62671 6.72133 35463 ft 471 kts 219°
2026-04-30 09:05 51.60029 6.69066 35466 ft 467 kts 207°
2026-04-30 09:05 51.57085 6.66941 35468 ft 463 kts 196°
2026-04-30 09:05 51.54021 6.65352 35468 ft 462 kts 194°
2026-04-30 09:06 51.47878 6.62301 35457 ft 462 kts 194°
2026-04-30 09:06 51.41739 6.59165 35452 ft 463 kts 194°
2026-04-30 09:07 51.35609 6.56015 35452 ft 462 kts 194°
2026-04-30 09:07 51.29525 6.52892 35437 ft 461 kts 194°
2026-04-30 09:08 51.23412 6.49769 35437 ft 461 kts 194°
2026-04-30 09:08 51.17295 6.46649 35436 ft 461 kts 194°
2026-04-30 09:09 51.11177 6.43540 35436 ft 461 kts 194°
2026-04-30 09:09 51.05053 6.40439 35431 ft 461 kts 194°
2026-04-30 09:10 50.98934 6.37343 35415 ft 461 kts 194°
2026-04-30 09:10 50.92818 6.34260 35409 ft 461 kts 194°
2026-04-30 09:11 50.86697 6.31184 35405 ft 461 kts 194°
2026-04-30 09:11 50.80603 6.28134 35405 ft 462 kts 194°
2026-04-30 09:12 50.74473 6.25070 35398 ft 462 kts 193°
2026-04-30 09:12 50.68212 6.23339 35385 ft 455 kts 181°
2026-04-30 09:13 50.61902 6.22584 35369 ft 454 kts 180°
2026-04-30 09:13 50.55593 6.21804 35369 ft 454 kts 180°
2026-04-30 09:14 50.49333 6.21006 35366 ft 454 kts 181°
2026-04-30 09:14 50.43042 6.20192 35364 ft 452 kts 181°
2026-04-30 09:15 50.36765 6.19385 35366 ft 452 kts 181°
2026-04-30 09:15 50.30490 6.18587 35362 ft 452 kts 181°
2026-04-30 09:16 50.24215 6.17790 35361 ft 452 kts 181°
2026-04-30 09:16 50.17952 6.16990 35357 ft 451 kts 181°
2026-04-30 09:17 50.11695 6.16198 35352 ft 451 kts 181°
2026-04-30 09:17 50.05441 6.15407 35353 ft 451 kts 181°
2026-04-30 09:18 49.99190 6.14620 35352 ft 450 kts 181°
2026-04-30 09:18 49.92944 6.13839 35348 ft 450 kts 180°
2026-04-30 09:19 49.86776 6.14439 35345 ft 440 kts 161°
2026-04-30 09:19 49.83953 6.15990 35346 ft 435 kts 150°
2026-04-30 09:19 49.81363 6.18347 35348 ft 429 kts 141°
2026-04-30 09:20 49.76620 6.23936 35351 ft 428 kts 139°
2026-04-30 09:20 49.71874 6.29512 35351 ft 429 kts 139°
2026-04-30 09:21 49.67105 6.35048 35350 ft 430 kts 139°
2026-04-30 09:21 49.62309 6.40581 35349 ft 430 kts 139°
2026-04-30 09:22 49.57516 6.46114 35344 ft 430 kts 139°
2026-04-30 09:22 49.52723 6.51625 35344 ft 430 kts 140°
2026-04-30 09:23 49.47911 6.57132 35334 ft 431 kts 140°
2026-04-30 09:23 49.43100 6.62630 35334 ft 431 kts 140°
2026-04-30 09:24 49.38283 6.68109 35330 ft 431 kts 140°
2026-04-30 09:24 49.33463 6.73597 35334 ft 432 kts 140°
2026-04-30 09:25 49.28639 6.79050 35329 ft 434 kts 140°
2026-04-30 09:25 49.23765 6.84545 35329 ft 435 kts 140°
2026-04-30 09:26 49.18895 6.90036 35343 ft 435 kts 140°
2026-04-30 09:26 49.14021 6.95519 35345 ft 435 kts 140°
2026-04-30 09:27 49.09150 7.00985 35348 ft 434 kts 140°
2026-04-30 09:27 49.04265 7.06451 35354 ft 436 kts 140°
2026-04-30 09:28 48.99361 7.11929 35341 ft 438 kts 140°
2026-04-30 09:28 48.94445 7.17405 35331 ft 438 kts 140°
2026-04-30 09:29 48.89525 7.22871 35325 ft 438 kts 140°
2026-04-30 09:29 48.84603 7.28323 35320 ft 438 kts 140°
2026-04-30 09:30 48.79701 7.33743 35317 ft 439 kts 140°
2026-04-30 09:30 48.74758 7.39194 35317 ft 439 kts 140°
2026-04-30 09:31 48.69813 7.44636 35323 ft 440 kts 140°
2026-04-30 09:31 48.64852 7.50079 35315 ft 440 kts 140°
2026-04-30 09:32 48.59888 7.55512 35312 ft 440 kts 140°
2026-04-30 09:32 48.54923 7.60935 35312 ft 441 kts 140°
2026-04-30 09:33 48.49979 7.66320 35320 ft 440 kts 140°
2026-04-30 09:33 48.45039 7.71776 35320 ft 439 kts 136°
2026-04-30 09:34 48.41081 7.78589 35344 ft 430 kts 120°
2026-04-30 09:34 48.37777 7.86081 35324 ft 429 kts 120°
2026-04-30 09:35 48.34447 7.93558 35319 ft 431 kts 120°
2026-04-30 09:35 48.31092 8.01015 35310 ft 431 kts 120°
2026-04-30 09:36 48.27729 8.08465 35309 ft 431 kts 120°
2026-04-30 09:36 48.24359 8.15915 35293 ft 431 kts 120°
2026-04-30 09:37 48.21005 8.23299 35290 ft 431 kts 120°
2026-04-30 09:37 48.17453 8.30569 35286 ft 435 kts 129°
2026-04-30 09:38 48.15195 8.33616 35288 ft 441 kts 140°
2026-04-30 09:38 48.12595 8.36092 35293 ft 444 kts 146°
2026-04-30 09:38 48.07209 8.40662 35284 ft 445 kts 147°
2026-04-30 09:39 48.01831 8.45273 35286 ft 445 kts 146°
2026-04-30 09:39 47.97372 8.49123 35283 ft 445 kts 146°
2026-04-30 09:40 47.91992 8.53762 35289 ft 448 kts 146°
2026-04-30 09:40 47.86583 8.58411 35283 ft 449 kts 146°
2026-04-30 09:41 47.81160 8.63058 35287 ft 449 kts 146°
2026-04-30 09:41 47.75733 8.67698 35286 ft 450 kts 146°
2026-04-30 09:42 47.70342 8.72299 35282 ft 449 kts 146°
2026-04-30 09:42 47.64884 8.76946 35287 ft 450 kts 147°
2026-04-30 09:43 47.59502 8.81574 35282 ft 449 kts 143°
2026-04-30 09:43 47.54484 8.87065 35292 ft 448 kts 139°
2026-04-30 09:44 47.49529 8.92673 35281 ft 449 kts 139°
2026-04-30 09:44 47.44560 8.98262 35274 ft 449 kts 139°
2026-04-30 09:45 47.39568 9.03856 35271 ft 451 kts 139°
2026-04-30 09:45 47.34558 9.09455 35257 ft 451 kts 139°
2026-04-30 09:46 47.29553 9.15038 35277 ft 451 kts 139°
2026-04-30 09:46 47.24563 9.20592 35238 ft 453 kts 139°
2026-04-30 09:47 47.19526 9.26180 35236 ft 454 kts 140°
2026-04-30 09:47 47.14472 9.31776 35224 ft 455 kts 140°
2026-04-30 09:48 47.09430 9.37348 35222 ft 453 kts 140°
2026-04-30 09:48 47.04382 9.42909 35223 ft 455 kts 140°
2026-04-30 09:49 46.99316 9.48478 35238 ft 456 kts 140°
2026-04-30 09:49 46.94216 9.54073 35228 ft 459 kts 140°
2026-04-30 09:50 46.89094 9.59677 35231 ft 459 kts 140°
2026-04-30 09:50 46.83975 9.65261 35232 ft 459 kts 140°
2026-04-30 09:51 46.78887 9.70801 35267 ft 459 kts 140°
2026-04-30 09:51 46.73753 9.76378 35274 ft 461 kts 140°
2026-04-30 09:52 46.68590 9.81970 35298 ft 463 kts 141°
2026-04-30 09:52 46.63422 9.87553 35291 ft 463 kts 141°
2026-04-30 09:53 46.58280 9.93097 35287 ft 463 kts 140°
2026-04-30 09:53 46.53107 9.98664 35292 ft 463 kts 141°
2026-04-30 09:54 46.47994 10.04361 35289 ft 462 kts 134°
2026-04-30 09:54 46.43753 10.11317 35319 ft 460 kts 126°
2026-04-30 09:55 46.39682 10.18481 35287 ft 461 kts 127°
2026-04-30 09:55 46.35578 10.25607 35282 ft 461 kts 127°
2026-04-30 09:56 46.31457 10.32730 35626 ft 462 kts 127°
2026-04-30 09:56 46.29390 10.36301 35860 ft 464 kts 127°
2026-04-30 09:56 46.27314 10.39878 36084 ft 464 kts 127°
2026-04-30 09:57 46.25236 10.43457 36323 ft 465 kts 127°
2026-04-30 09:57 46.23151 10.47041 36492 ft 468 kts 128°
2026-04-30 09:57 46.21049 10.50649 36694 ft 469 kts 128°
2026-04-30 09:57 46.18938 10.54267 36930 ft 470 kts 128°
2026-04-30 09:58 46.16855 10.57833 37148 ft 471 kts 128°
2026-04-30 09:58 46.14742 10.61448 37316 ft 472 kts 128°
2026-04-30 09:58 46.10507 10.68676 37316 ft 472 kts 128°
2026-04-30 09:59 46.02008 10.83122 37291 ft 475 kts 128°
2026-04-30 10:00 45.95578 10.94000 37299 ft 476 kts 128°
2026-04-30 10:01 45.89163 11.04809 37298 ft 475 kts 128°
2026-04-30 10:02 45.82709 11.15650 37300 ft 477 kts 128°
2026-04-30 10:02 45.78383 11.22887 37308 ft 477 kts 128°
2026-04-30 10:03 45.74053 11.30112 37313 ft 478 kts 128°
2026-04-30 10:03 45.69707 11.37346 37326 ft 479 kts 128°
2026-04-30 10:04 45.65359 11.44565 37325 ft 479 kts 128°
2026-04-30 10:04 45.61040 11.51722 37334 ft 479 kts 128°
2026-04-30 10:05 45.56676 11.58930 37329 ft 479 kts 129°
2026-04-30 10:05 45.52304 11.66130 37343 ft 479 kts 129°